Location: Pensacola
(30.4142°N, 87.2155°W)
Time: 17:01:44
(UTC-06:00)

Cosmos 1741 Rocket - Pass Details

Date: 10 December 2023
Orbit: 760 x 780 km, 74.0° (Epoch: 26 February)

Event Time Altitude Azimuth Distance (km) Brightness Sun altitude
Rises 20:08:13 0° 320° (NW) 3,265 7.6 -42.1°
Reaches altitude 10° 20:11:37 10° 297° (WNW) 2,333 7.0 -42.9°
Enters shadow 20:12:41 13° 286° (WNW) 2,145 6.8 -43.1°
